Volver al catálogo

NIGERIASAT X

ActivoCienciaSSO
NORAD 37790·PAYLOAD·🇳🇬 Nigeria

Lanzado Aug 17, 2011 desde Dombarovsky

Loading…

Próximos Pases (próximas 24 horas)

TLE

ActualizadoSource: Space-Track

Época: Sep 14, 2026, 09:08 UTC

1 37790U 11044C   26257.38061595  .00000247  00000-0  59358-4 0  9992
2 37790  97.8654 237.0586 0013496  57.2745 302.9755 14.60918343803192

Sigue NIGERIASAT X en tiempo real con AllMySat

Download on the App Store